Temperature
8 6 6 7 7 8 8 7 7 7 7 6 5 5 5 5 5 4 4 5 5 5 6 6 7 7 7 7 7 7 7 8 7 8 8 8 8 8 8 8 8 8 8 8
6 6 7 7 7 7 7 7 6 6 6 6 5 4 4 4 4 4 4 4 4 4 5 6 6 6 6 7 7 7 7 7 7 7 7 7 7 7 7 7 7 8 8 8
7 7 7 7 6 7 6 6 6 6 5 5 5 4 4 4 4 4 4 4 4 4 4 5 5 5 6 6 6 6 6 6 6 6 6 6 6 6 6 7 7 7 7 7
6 6 7 6 6 6 6 6 6 5 4 4 5 4 4 3 3 3 3 3 3 3 3 4 4 5 5 5 5 5 5 5 5 5 5 5 5 6 6 6 6 6 6 7
5 6 6 6 6 6 5 5 5 5 4 3 3 3 3 3 3 3 2 2 3 3 3 3 3 4 4 4 4 5 5 5 5 5 5 5 5 5 5 5 5 6 6 6
5 5 5 5 5 5 5 4 4 3 3 3 3 3 3 2 2 2 2 2 2 2 2 3 3 3 3 3 4 4 4 4 4 4 4 4 4 4 5 5 5 5 6 6
5 5 5 5 5 5 4 4 4 4 3 3 3 2 2 2 1 1 1 1 2 2 2 2 2 3 3 3 3 3 3 3 3 3 4 4 4 4 4 4 4 5 5 5
4 4 4 4 4 4 4 4 4 4 3 3 2 2 1 1 1 1 1 1 1 2 2 1 1 2 2 2 2 2 2 2 2 3 3 3 3 3 3 4 4 4 4 4
3 3 4 4 4 4 4 3 3 2 1 1 1 1 0 1 1 1 1 1 1 1 1 1 1 1 1 2 2 2 2 2 2 2 2 2 2 3 3 3 3 3 4 4
2 2 3 3 4 3 3 2 1 2 2 2 2 1 1 0 0 -0 -1 -0 0 1 0 1 1 1 1 1 1 1 1 1 1 1 1 1 2 2 2 2 3 3 3 3
2 2 2 2 2 2 2 2 1 1 1 1 1 1 0 -0 -0 -1 -1 -0 -0 -0 -0 -0 -0 0 0 0 0 0 0 1 1 1 1 1 1 1 1 2 2 2 3 3
1 0 0 1 1 1 1 1 0 1 0 -0 -0 0 0 -1 -1 -1 -1 -1 -1 -1 -1 -0 -0 -0 -0 -0 -0 -0 -0 -0 -0 -0 0 0 0 0 1 1 1 2 2 2
1 0 1 1 1 1 1 0 -0 -1 -1 -1 -1 -0 -0 -1 -1 -1 -1 -1 -1 -1 -1 -1 -1 -1 -1 -1 -1 -1 -1 -1 -1 -1 -1 -0 -0 -0 0 0 1 1 1 2
1 -0 -0 1 1 0 -0 -0 -0 -1 -1 -2 -1 -1 -1 -1 -2 -2 -2 -2 -2 -2 -2 -2 -2 -2 -2 -2 -2 -2 -2 -2 -2 -1 -1 -1 -1 -1 -0 -0 0 1 1 1
-0 -1 -1 -1 -1 -0 -1 -1 -1 -1 -2 -2 -2 -2 -2 -2 -2 -2 -2 -2 -2 -2 -2 -3 -3 -3 -3 -3 -3 -3 -3 -2 -2 -2 -2 -2 -2 -2 -1 -1 -0 0 0 1
-2 -1 -1 -2 -1 -1 -1 -1 -1 -2 -2 -2 -2 -2 -2 -2 -2 -3 -3 -3 -3 -3 -3 -3 -3 -3 -4 -3 -3 -3 -3 -3 -3 -3 -2 -2 -2 -2 -2 -1 -1 -1 -0 0
-3 -2 -2 -2 -2 -2 -2 -2 -2 -2 -3 -3 -3 -3 -3 -4 -3 -3 -3 -3 -4 -4 -4 -4 -4 -4 -4 -4 -4 -4 -4 -4 -4 -3 -3 -3 -3 -3 -2 -2 -2 -1 -1 -1
-3 -3 -3 -3 -3 -3 -2 -3 -2 -3 -3 -4 -4 -4 -4 -4 -4 -4 -4 -4 -4 -4 -4 -5 -5 -5 -5 -5 -5 -5 -5 -4 -4 -4 -4 -4 -3 -3 -3 -3 -2 -2 -2 -1
-4 -3 -4 -4 -4 -4 -3 -3 -3 -3 -4 -4 -5 -5 -4 -4 -4 -4 -4 -4 -5 -5 -5 -5 -5 -5 -5 -5 -5 -5 -5 -5 -5 -5 -4 -4 -4 -4 -4 -3 -3 -3 -2 -2
-4 -4 -4 -5 -4 -4 -2 -3 -3 -3 -4 -4 -4 -5 -5 -5 -6 -5 -4 -5 -5 -5 -5 -6 -5 -5 -6 -6 -6 -6 -6 -6 -6 -5 -5 -5 -5 -4 -4 -4 -4 -3 -3 -3
-4 -5 -5 -5 -5 -4 -4 -3 -3 -4 -4 -4 -4 -4 -5 -6 -6 -5 -5 -6 -6 -6 -6 -6 -6 -6 -6 -6 -6 -6 -6 -6 -6 -6 -5 -5 -5 -5 -5 -4 -4 -4 -4 -3
-4 -5 -6 -6 -6 -4 -4 -4 -4 -4 -3 -4 -4 -4 -5 -5 -5 -6 -6 -6 -6 -6 -6 -6 -6 -6 -6 -7 -7 -7 -6 -6 -6 -6 -6 -5 -5 -5 -5 -5 -5 -4 -4 -4
-5 -5 -5 -5 -4 -4 -3 -4 -3 -4 -4 -4 -5 -5 -5 -6 -6 -6 -6 -6 -6 -6 -6 -6 -7 -7 -7 -7 -7 -7 -7 -7 -7 -6 -6 -6 -6 -5 -5 -5 -5 -5 -5 -4
-6 -6 -6 -6 -6 -5 -4 -4 -4 -4 -5 -5 -5 -6 -6 -6 -7 -7 -7 -7 -7 -7 -7 -7 -7 -7 -7 -7 -7 -7 -7 -7 -7 -7 -6 -6 -6 -6 -6 -6 -6 -5 -5 -5
-6 -7 -7 -7 -6 -5 -4 -4 -5 -5 -5 -6 -6 -6 -7 -7 -7 -7 -7 -7 -7 -7 -8 -8 -8 -8 -8 -8 -8 -8 -8 -8 -7 -7 -7 -7 -7 -6 -6 -6 -6 -6 -6 -6
-7 -7 -7 -6 -5 -6 -5 -5 -5 -6 -6 -7 -7 -7 -7 -8 -8 -8 -8 -8 -8 -8 -8 -8 -8 -8 -8 -8 -8 -8 -8 -8 -8 -8 -7 -7 -7 -7 -7 -7 -6 -6 -6 -6
Wind_Speed
5 5 1 2 2 2 1 2 4 5 3 3 4 6 7 5 3 4 4 4 4 5 5 6 7 5 4 4 3 2 2 2 2 2 2 2 2 2 2 2 1 1 1 2
5 2 3 1 1 0 1 3 4 5 4 2 4 5 4 3 1 2 3 4 4 6 7 8 8 7 5 4 3 3 2 2 1 1 1 1 2 1 2 2 2 1 1 1
3 2 2 2 2 2 2 3 4 6 6 3 3 5 2 2 2 3 4 4 4 4 5 7 7 6 6 6 4 3 3 3 2 2 2 2 2 2 2 2 2 2 1 1
1 3 2 2 1 0 4 3 4 4 4 5 2 5 4 2 3 5 6 6 6 5 5 6 6 6 6 5 5 4 3 3 3 2 1 1 1 2 2 2 2 2 2 1
2 2 2 1 2 1 4 3 3 3 3 3 2 3 6 2 3 4 5 6 6 5 5 6 6 5 5 5 5 4 4 4 4 3 1 1 2 3 3 2 2 2 2 2
1 1 1 1 1 1 2 2 2 3 2 3 3 4 5 2 2 3 5 6 6 6 6 6 7 6 6 6 5 5 4 4 4 3 2 1 2 3 3 3 3 2 2 2
4 3 2 2 2 4 4 4 4 5 2 5 1 3 5 3 2 1 3 5 5 5 6 7 8 8 8 7 6 5 5 5 4 4 3 3 3 3 3 3 3 3 2 3
3 5 3 3 1 1 1 3 3 3 5 6 3 4 3 1 2 2 2 4 5 6 6 6 7 6 6 7 6 6 6 6 5 4 4 4 3 3 3 4 3 4 4 4
0 4 3 3 2 1 1 1 2 2 2 5 5 4 4 1 4 5 6 6 7 7 7 6 7 7 6 6 6 5 5 6 6 5 5 4 4 4 4 4 4 4 4 4
2 4 4 4 2 2 1 3 3 2 3 5 5 5 4 3 4 5 6 7 7 7 7 7 7 7 6 6 5 5 4 5 6 6 5 5 5 5 5 4 4 5 5 4
1 2 5 3 0 2 1 1 2 2 2 3 5 5 2 3 2 4 6 7 7 8 8 8 7 7 7 6 5 5 6 6 6 6 6 5 5 5 5 4 5 5 5 4
1 2 3 5 4 1 2 3 4 2 4 4 4 6 1 1 2 5 7 7 8 8 8 8 8 8 7 6 6 6 6 6 7 6 6 5 5 5 5 5 5 5 5 5
1 2 3 5 2 2 1 1 3 2 2 5 5 7 1 3 5 6 7 8 9 9 9 8 7 7 7 7 7 7 7 6 6 6 6 6 6 5 5 5 5 5 5 5
1 3 5 7 5 3 5 5 3 3 4 6 8 10 10 9 9 9 8 9 9 9 9 8 8 7 7 7 7 8 8 7 6 6 5 6 6 6 5 5 5 5 4 4
2 3 5 7 7 6 8 9 7 8 8 8 9 10 13 9 8 8 8 9 10 10 9 9 9 8 8 9 8 8 8 7 7 7 6 6 6 5 5 5 5 5 4 4
1 2 2 6 5 6 9 10 9 9 7 9 10 13 9 6 6 7 9 9 10 11 10 10 10 10 10 9 9 9 9 8 7 7 6 6 5 5 5 5 5 5 4 4
1 2 2 5 5 6 7 7 6 4 5 6 9 9 6 7 8 9 10 10 9 10 11 11 11 10 10 9 9 9 9 8 7 7 7 5 5 5 5 5 5 5 4 4
4 3 2 3 3 7 6 1 3 4 7 6 6 5 6 8 10 9 9 8 8 10 11 11 10 11 10 9 8 8 8 7 7 7 7 5 5 5 5 5 5 5 4 4
5 4 2 2 4 8 7 3 2 3 7 4 4 6 8 8 8 7 5 5 8 9 10 10 9 9 9 9 8 7 7 7 7 7 7 6 5 5 5 5 5 5 4 4
3 3 3 2 3 7 6 2 1 0 6 3 3 6 8 7 8 8 7 9 11 10 9 9 9 8 8 8 7 6 7 7 7 7 7 6 5 5 5 5 5 5 4 4
2 1 4 5 6 8 6 1 2 1 6 3 4 6 7 6 8 9 10 11 10 10 10 9 8 8 8 8 6 7 7 7 8 8 7 6 5 5 5 4 5 4 4 3
6 5 5 4 5 8 2 3 4 7 4 4 6 6 8 10 10 10 10 10 11 10 10 9 8 8 8 7 6 7 8 8 7 7 7 6 6 5 4 4 4 4 3 3
6 7 5 8 8 4 3 5 5 3 4 5 6 7 8 9 10 10 10 10 10 10 10 9 8 9 8 7 6 7 8 8 7 7 7 6 6 5 4 4 4 3 3 2
4 2 3 5 8 6 5 5 4 4 5 6 6 7 7 8 9 10 10 10 9 9 9 8 8 9 9 8 7 7 8 7 7 7 7 6 5 5 4 4 3 3 3 3
5 4 3 6 7 6 4 5 5 6 6 6 7 7 7 8 9 9 9 10 9 10 9 8 8 8 9 9 9 8 8 7 7 7 6 5 5 4 4 4 3 4 4 4
3 5 5 7 6 5 6 5 5 6 7 7 8 8 7 7 9 9 9 9 9 9 8 8 8 9 9 9 9 9 7 6 6 6 5 4 4 4 4 4 5 5 5 6
Wind_Direction
28 60 39 271 223 209 213 239 274 277 318 334 274 282 299 317 356 356 353 357 354 341 343 2 6 6 20 23 24 19 22 24 42 30 14 6 335 327 334 338 319 265 214 182
42 8 283 278 55 92 262 283 290 299 331 311 287 284 291 322 355 355 352 351 351 357 4 5 9 12 10 10 8 11 3 3 8 342 327 336 327 309 317 347 351 337 273 187
137 279 340 71 33 358 297 244 274 289 325 329 316 306 296 342 27 22 11 360 3 11 359 358 3 3 5 3 357 356 347 346 338 2 26 19 12 11 6 338 317 314 289 230
39 329 16 49 2 325 279 272 266 285 319 299 359 295 279 295 347 0 358 360 356 357 358 1 2 359 354 348 352 353 355 2 356 7 19 45 343 310 291 288 283 301 279 256
341 357 22 354 305 239 252 293 272 265 232 290 281 231 285 328 327 333 346 352 350 354 359 356 352 346 348 348 354 354 356 1 1 2 348 327 333 322 322 320 305 295 303 269
294 336 34 276 304 261 292 359 22 55 87 280 237 198 280 277 272 314 340 346 349 353 360 357 354 356 359 358 359 358 357 353 353 347 339 325 315 321 325 319 304 300 300 298
345 346 355 7 5 13 39 50 1 346 340 257 260 216 252 272 301 316 325 334 341 353 359 359 357 355 355 355 354 351 348 342 342 335 324 312 295 282 271 282 279 282 286 280
349 310 337 5 20 301 333 130 164 251 265 289 314 243 249 298 343 347 348 344 350 353 354 354 351 347 344 345 347 346 341 336 334 325 316 312 306 294 282 277 274 267 259 256
281 279 329 348 328 151 98 160 168 170 274 276 272 280 292 1 12 9 2 358 348 342 344 347 349 349 344 340 337 337 334 331 328 321 320 316 307 302 298 290 280 279 274 272
159 281 304 321 5 25 119 142 97 152 270 275 280 267 254 293 326 346 349 343 334 335 338 339 340 340 339 335 331 337 335 327 322 319 313 312 301 297 293 294 286 283 281 277
123 225 308 348 244 256 62 112 135 179 203 236 278 270 228 233 283 317 319 321 321 326 326 326 328 329 330 336 338 338 337 335 329 323 319 319 315 309 301 299 294 286 286 277
92 131 279 271 269 238 184 180 157 204 254 228 258 269 275 214 316 319 314 318 322 322 320 319 321 326 332 336 335 333 332 329 323 317 314 315 318 319 315 308 304 299 291 286
129 122 322 329 339 22 13 198 178 185 214 225 236 261 267 339 325 321 316 315 318 319 319 322 323 326 329 331 329 327 327 323 322 321 320 321 318 315 309 304 305 303 295 288
122 185 205 232 255 268 276 268 238 205 231 246 240 263 290 305 310 314 314 311 313 315 317 322 324 324 325 325 324 323 321 322 323 322 317 313 310 307 305 304 305 302 298 296
101 225 246 260 268 265 263 266 257 234 231 241 262 267 279 287 294 299 302 311 320 321 324 325 323 321 322 321 321 320 318 321 320 318 312 306 306 306 309 310 307 305 304 305
85 224 281 283 274 273 272 263 249 247 245 249 267 275 277 290 298 303 305 309 312 312 318 320 320 320 317 316 316 317 316 316 315 312 306 307 310 314 315 315 311 312 315 314
185 181 246 274 303 319 274 247 222 231 237 237 254 269 303 313 309 306 304 300 300 305 312 315 314 311 312 310 309 308 309 310 310 307 305 307 310 312 312 314 317 314 314 314
180 183 213 278 339 261 255 239 208 241 269 254 262 289 306 300 301 296 291 290 298 306 309 309 309 310 311 310 307 305 308 308 307 305 305 306 309 309 310 312 312 312 308 305
184 173 189 222 264 277 287 260 208 243 284 256 257 289 305 312 313 305 303 309 301 302 302 303 303 305 310 314 313 312 311 309 307 306 306 305 305 305 306 309 307 307 305 303
106 139 171 184 238 257 262 265 260 22 282 264 263 291 305 325 318 304 318 317 309 306 306 307 309 311 313 315 316 315 312 309 304 303 303 302 301 299 299 299 300 300 295 293
154 166 201 216 238 264 260 260 83 229 269 295 280 286 292 283 271 287 302 306 305 306 308 312 313 313 312 314 316 312 311 304 304 306 306 304 302 296 290 291 295 298 303 305
192 191 205 189 222 257 232 142 203 244 287 289 286 285 284 285 290 296 303 307 312 314 315 317 316 314 313 315 315 309 306 306 309 309 305 302 300 297 298 294 299 299 298 303
208 200 198 202 225 256 213 223 253 262 274 282 285 289 291 294 298 304 307 308 310 312 315 317 315 315 317 317 314 307 305 309 309 308 304 303 303 300 297 291 294 296 288 286
248 198 203 252 265 267 271 274 285 278 277 290 293 294 295 293 298 302 306 310 313 313 314 316 317 319 319 321 317 304 304 308 305 303 302 303 303 303 302 297 290 289 284 281
231 189 221 256 276 297 281 267 280 292 296 301 303 298 295 294 298 300 302 306 308 311 312 314 315 314 313 316 315 313 312 311 308 305 303 306 306 301 301 296 284 282 269 263
205 197 211 247 251 246 273 288 293 291 293 296 301 305 305 296 294 299 299 301 304 306 310 313 313 311 310 313 313 313 311 306 304 307 308 307 306 303 300 300 307 304 301 299
Height
1516 1521 1525 1525 1525 1525 1525 1527 1528 1525 1521 1522 1522 1521 1517 1515 1514 1512 1511 1510 1509 1508 1508 1507 1506 1505 1505 1505 1505 1505 1505 1506 1506 1506 1506 1507 1507 1508 1509 1510 1511 1512 1513 1514
1522 1526 1524 1523 1524 1525 1526 1527 1528 1525 1522 1522 1522 1521 1517 1514 1514 1513 1511 1510 1509 1507 1506 1505 1504 1503 1503 1503 1503 1503 1503 1503 1503 1504 1505 1505 1506 1506 1507 1508 1508 1509 1510 1511
1525 1527 1523 1524 1525 1526 1527 1529 1528 1527 1524 1522 1523 1520 1518 1515 1514 1512 1511 1510 1509 1508 1506 1505 1504 1503 1502 1502 1501 1501 1502 1502 1502 1502 1502 1503 1503 1504 1504 1505 1505 1506 1507 1508
1526 1525 1525 1525 1527 1526 1528 1526 1526 1526 1529 1530 1526 1528 1519 1516 1515 1513 1512 1510 1509 1508 1506 1505 1503 1502 1502 1501 1501 1500 1500 1500 1500 1500 1500 1500 1500 1501 1501 1502 1503 1504 1504 1505
1528 1527 1526 1527 1527 1527 1527 1525 1525 1526 1528 1531 1529 1531 1522 1518 1516 1515 1513 1512 1510 1508 1506 1505 1504 1503 1502 1501 1500 1499 1498 1498 1498 1498 1498 1498 1498 1499 1499 1500 1500 1501 1501 1502
1528 1527 1527 1527 1527 1526 1526 1526 1526 1529 1531 1532 1527 1531 1524 1521 1518 1516 1514 1512 1510 1508 1507 1505 1504 1502 1501 1500 1499 1498 1497 1496 1496 1496 1496 1496 1496 1496 1496 1496 1496 1497 1498 1498
1531 1529 1528 1527 1527 1527 1528 1531 1535 1534 1536 1529 1526 1528 1526 1519 1517 1516 1515 1513 1511 1509 1507 1505 1503 1501 1500 1499 1497 1496 1495 1494 1494 1493 1493 1493 1493 1493 1492 1493 1493 1493 1494 1495
1535 1535 1531 1529 1530 1531 1531 1532 1539 1540 1538 1532 1529 1529 1524 1519 1517 1516 1515 1513 1511 1509 1507 1505 1503 1501 1500 1498 1496 1495 1493 1492 1491 1491 1490 1490 1490 1489 1489 1490 1490 1490 1491 1491
1540 1536 1531 1530 1529 1530 1531 1535 1535 1542 1542 1541 1532 1529 1524 1518 1516 1515 1514 1513 1511 1509 1507 1505 1503 1501 1499 1497 1495 1494 1492 1490 1489 1488 1487 1487 1486 1486 1486 1486 1486 1486 1487 1487
1539 1540 1534 1532 1530 1531 1532 1535 1540 1540 1539 1537 1529 1529 1524 1520 1518 1517 1515 1513 1511 1509 1507 1504 1502 1500 1498 1496 1494 1492 1490 1488 1486 1485 1484 1483 1483 1482 1482 1482 1482 1482 1482 1483
1538 1542 1538 1535 1534 1534 1534 1536 1537 1541 1541 1540 1537 1528 1520 1520 1518 1517 1516 1514 1511 1508 1506 1503 1501 1498 1496 1493 1491 1489 1487 1485 1483 1482 1481 1480 1479 1478 1478 1478 1477 1478 1478 1478
1540 1544 1543 1538 1534 1533 1533 1535 1538 1542 1540 1542 1538 1530 1518 1518 1517 1516 1515 1512 1510 1507 1504 1501 1498 1496 1493 1490 1488 1486 1484 1482 1480 1478 1477 1476 1475 1474 1474 1473 1473 1473 1473 1474
1540 1543 1543 1537 1537 1536 1535 1535 1537 1539 1541 1541 1540 1529 1518 1517 1516 1515 1513 1510 1507 1505 1502 1499 1496 1493 1490 1487 1485 1483 1480 1478 1476 1475 1473 1472 1470 1470 1469 1469 1469 1469 1469 1469
1538 1542 1543 1540 1534 1536 1536 1535 1535 1538 1540 1536 1530 1524 1518 1516 1515 1513 1511 1508 1505 1502 1499 1496 1493 1490 1487 1485 1482 1479 1477 1475 1472 1470 1469 1467 1466 1466 1465 1464 1464 1464 1464 1464
1538 1541 1540 1538 1536 1534 1533 1532 1532 1533 1532 1532 1525 1522 1516 1515 1514 1511 1509 1506 1503 1500 1497 1494 1490 1487 1484 1481 1478 1475 1473 1471 1469 1466 1465 1463 1462 1461 1461 1460 1459 1459 1459 1459
1539 1540 1539 1537 1533 1533 1531 1527 1527 1527 1527 1526 1522 1518 1513 1512 1511 1509 1506 1503 1500 1497 1494 1491 1488 1484 1480 1477 1474 1471 1469 1467 1465 1462 1461 1459 1458 1457 1456 1455 1455 1455 1454 1455
1540 1541 1541 1539 1535 1532 1530 1523 1522 1523 1521 1521 1519 1515 1511 1510 1508 1506 1503 1500 1497 1495 1491 1488 1484 1481 1477 1473 1470 1467 1465 1462 1460 1458 1456 1455 1454 1452 1452 1451 1451 1450 1450 1450
1538 1539 1542 1541 1539 1538 1525 1520 1519 1519 1518 1516 1514 1513 1511 1509 1506 1503 1501 1498 1494 1491 1488 1484 1480 1477 1473 1469 1466 1463 1461 1458 1456 1454 1452 1451 1449 1448 1448 1447 1447 1446 1446 1446
1533 1537 1541 1541 1541 1532 1523 1519 1518 1519 1516 1513 1513 1511 1509 1506 1502 1498 1497 1495 1492 1488 1485 1481 1477 1473 1469 1466 1462 1459 1456 1454 1452 1450 1448 1447 1446 1444 1443 1443 1442 1442 1442 1442
1534 1535 1540 1542 1540 1533 1520 1517 1515 1518 1516 1511 1510 1509 1507 1505 1503 1497 1494 1492 1488 1484 1481 1477 1473 1469 1466 1462 1459 1456 1453 1451 1448 1447 1445 1444 1442 1441 1440 1439 1439 1439 1438 1438
1535 1538 1540 1540 1538 1527 1517 1515 1516 1522 1515 1509 1508 1507 1505 1503 1501 1496 1492 1488 1485 1481 1477 1474 1470 1466 1463 1459 1456 1453 1450 1447 1445 1443 1442 1440 1439 1438 1437 1436 1436 1435 1434 1434
1531 1535 1538 1538 1538 1527 1514 1514 1516 1513 1508 1507 1505 1504 1502 1499 1495 1492 1488 1484 1481 1477 1474 1470 1466 1463 1460 1456 1453 1450 1447 1444 1442 1440 1438 1436 1435 1434 1433 1432 1432 1431 1431 1430
1526 1524 1525 1525 1520 1512 1510 1509 1509 1508 1506 1504 1502 1500 1498 1495 1491 1488 1484 1481 1477 1474 1470 1467 1463 1459 1456 1453 1450 1447 1444 1441 1438 1436 1434 1433 1432 1431 1430 1429 1428 1427 1427 1427
1520 1519 1520 1519 1511 1508 1508 1507 1506 1505 1503 1501 1500 1497 1494 1491 1487 1484 1481 1477 1474 1470 1467 1463 1460 1456 1452 1449 1447 1444 1441 1438 1435 1433 1431 1429 1428 1427 1426 1426 1425 1424 1424 1423
1515 1516 1517 1514 1508 1506 1503 1503 1503 1501 1500 1498 1495 1493 1491 1487 1484 1480 1477 1473 1470 1467 1463 1460 1456 1452 1449 1446 1443 1440 1437 1435 1432 1430 1428 1426 1425 1423 1422 1422 1422 1421 1421 1421
1511 1512 1513 1509 1505 1505 1502 1500 1499 1498 1496 1494 1491 1488 1486 1484 1480 1476 1473 1470 1466 1463 1459 1456 1453 1449 1445 1442 1439 1437 1434 1432 1429 1426 1424 1423 1421 1420 1419 1418 1418 1418 1418 1418